Time,TemperatureF,DewpointF,PressureIn,WindDirection,WindDirectionDegrees,WindSpeedMPH,WindSpeedGustMPH,Humidity,HourlyPrecipIn,Conditions,Clouds,dailyrainin,SolarRadiationWatts/m^2,SoftwareType,DateUTC
2013-03-29 00:01:00,37.0,21.0,-100.00,NNE,16,3.0,9.0,53,0.00,,,-99.99,0.000000,,2013-03-29 04:01:00,
2013-03-29 00:23:00,37.0,21.0,-100.00,NNE,16,3.0,9.0,53,0.00,,,-99.99,0.000000,,2013-03-29 04:23:00,
2013-03-29 00:33:00,37.0,21.0,-100.00,NNE,16,3.0,9.0,53,0.00,,,-99.99,0.000000,,2013-03-29 04:33:00,
2013-03-29 00:43:00,37.0,21.0,-100.00,NNE,16,3.0,9.0,53,0.00,,,-99.99,0.000000,,2013-03-29 04:43:00,
2013-03-29 00:53:00,37.0,21.0,-100.00,NNE,16,3.0,9.0,53,0.00,,,-99.99,0.000000,,2013-03-29 04:53:00,
2013-03-29 01:01:00,37.0,21.0,-100.00,West,262,3.0,9.0,53,0.00,,,-99.99,0.000000,,2013-03-29 05:01:00,
2013-03-29 01:23:00,37.0,21.0,-100.00,West,262,3.0,9.0,53,0.00,,,-99.99,0.000000,,2013-03-29 05:23:00,
2013-03-29 01:33:00,37.0,21.0,-100.00,West,262,3.0,9.0,53,0.00,,,-99.99,0.000000,,2013-03-29 05:33:00,
2013-03-29 01:43:00,37.0,21.0,-100.00,West,262,3.0,9.0,53,0.00,,,-99.99,0.000000,,2013-03-29 05:43:00,
2013-03-29 01:52:00,37.0,21.0,-100.00,West,262,3.0,9.0,53,0.00,,,-99.99,0.000000,,2013-03-29 05:52:00,
2013-03-29 02:01:00,37.0,22.0,-100.00,West,279,3.0,10.0,54,0.00,,,-99.99,0.000000,,2013-03-29 06:01:00,
2013-03-29 02:23:00,37.0,22.0,-100.00,West,279,3.0,10.0,54,0.00,,,-99.99,0.000000,,2013-03-29 06:23:00,
2013-03-29 02:32:00,37.0,22.0,-100.00,West,279,3.0,10.0,54,0.00,,,-99.99,0.000000,,2013-03-29 06:32:00,
2013-03-29 02:42:00,37.0,22.0,-100.00,West,279,3.0,10.0,54,0.00,,,-99.99,0.000000,,2013-03-29 06:42:00,
2013-03-29 02:52:00,37.0,22.0,-100.00,West,279,3.0,10.0,54,0.00,,,-99.99,0.000000,,2013-03-29 06:52:00,
2013-03-29 03:01:00,37.0,21.0,-100.00,SE,137,2.0,7.0,53,0.00,,,-99.99,0.000000,,2013-03-29 07:01:00,
2013-03-29 03:32:00,37.0,21.0,-100.00,SE,137,2.0,7.0,53,0.00,,,-99.99,0.000000,,2013-03-29 07:32:00,
2013-03-29 03:42:00,37.0,21.0,-100.00,SE,137,2.0,7.0,53,0.00,,,-99.99,0.000000,,2013-03-29 07:42:00,
2013-03-29 03:52:00,37.0,21.0,-100.00,SE,137,2.0,7.0,53,0.00,,,-99.99,0.000000,,2013-03-29 07:52:00,
2013-03-29 04:01:00,37.0,22.0,-100.00,NNE,23,3.0,6.0,55,0.00,,,-99.99,0.000000,,2013-03-29 08:01:00,
2013-03-29 04:32:00,37.0,22.0,-100.00,NNE,23,3.0,6.0,55,0.00,,,-99.99,0.000000,,2013-03-29 08:32:00,
2013-03-29 04:42:00,37.0,22.0,-100.00,NNE,23,3.0,6.0,55,0.00,,,-99.99,0.000000,,2013-03-29 08:42:00,
2013-03-29 04:53:00,37.0,22.0,-100.00,NNE,23,3.0,6.0,55,0.00,,,-99.99,0.000000,,2013-03-29 08:53:00,
2013-03-29 05:01:00,37.0,22.0,-100.00,SW,235,2.0,5.0,55,0.00,,,-99.99,0.000000,,2013-03-29 09:01:00,
2013-03-29 05:22:00,37.0,22.0,-100.00,SW,235,2.0,5.0,55,0.00,,,-99.99,0.000000,,2013-03-29 09:22:00,
2013-03-29 05:33:00,37.0,22.0,-100.00,SW,235,2.0,5.0,55,0.00,,,-99.99,0.000000,,2013-03-29 09:33:00,
2013-03-29 05:43:00,37.0,22.0,-100.00,SW,235,2.0,5.0,55,0.00,,,-99.99,0.000000,,2013-03-29 09:43:00,
2013-03-29 05:52:00,37.0,22.0,-100.00,SW,235,2.0,5.0,55,0.00,,,-99.99,0.000000,,2013-03-29 09:52:00,
2013-03-29 06:01:00,37.0,23.0,-100.00,WNW,286,1.0,6.0,57,0.00,,,-99.99,0.000000,,2013-03-29 10:01:00,
2013-03-29 06:33:00,37.0,23.0,-100.00,WNW,286,1.0,6.0,57,0.00,,,-99.99,0.000000,,2013-03-29 10:33:00,
2013-03-29 06:42:00,37.0,23.0,-100.00,WNW,286,1.0,6.0,57,0.00,,,-99.99,0.000000,,2013-03-29 10:42:00,
2013-03-29 06:53:00,37.0,23.0,-100.00,WNW,286,1.0,6.0,57,0.00,,,-99.99,0.000000,,2013-03-29 10:53:00,
2013-03-29 07:01:00,36.0,23.0,-100.00,WSW,240,3.0,6.0,58,0.00,,,-99.99,0.000000,,2013-03-29 11:01:00,
2013-03-29 07:33:00,36.0,23.0,-100.00,WSW,240,3.0,6.0,58,0.00,,,-99.99,0.000000,,2013-03-29 11:33:00,
2013-03-29 07:43:00,36.0,23.0,-100.00,WSW,240,3.0,6.0,58,0.00,,,-99.99,0.000000,,2013-03-29 11:43:00,
2013-03-29 07:53:00,36.0,23.0,-100.00,WSW,240,3.0,6.0,58,0.00,,,-99.99,0.000000,,2013-03-29 11:53:00,
2013-03-29 08:01:00,36.0,23.0,-100.00,NW,316,2.0,7.0,59,0.00,,,-99.99,20.000000,,2013-03-29 12:01:00,
2013-03-29 08:33:00,36.0,23.0,-100.00,NW,316,2.0,7.0,59,0.00,,,-99.99,20.000000,,2013-03-29 12:33:00,
2013-03-29 08:43:00,36.0,23.0,-100.00,NW,316,2.0,7.0,59,0.00,,,-99.99,20.000000,,2013-03-29 12:43:00,
2013-03-29 08:53:00,36.0,23.0,-100.00,NW,316,2.0,7.0,59,0.00,,,-99.99,20.000000,,2013-03-29 12:53:00,
2013-03-29 09:01:00,38.0,25.0,-100.00,NW,313,2.0,6.0,58,0.00,,,-99.99,95.000000,,2013-03-29 13:01:00,
2013-03-29 09:33:00,38.0,25.0,-100.00,NW,313,2.0,6.0,58,0.00,,,-99.99,95.000000,,2013-03-29 13:33:00,
2013-03-29 09:43:00,38.0,25.0,-100.00,NW,313,2.0,6.0,58,0.00,,,-99.99,95.000000,,2013-03-29 13:43:00,
2013-03-29 09:53:00,38.0,25.0,-100.00,NW,313,2.0,6.0,58,0.00,,,-99.99,95.000000,,2013-03-29 13:53:00,
2013-03-29 10:01:00,42.0,26.0,-100.00,SW,215,3.0,8.0,53,0.00,,,-99.99,300.000000,,2013-03-29 14:01:00,
2013-03-29 10:22:00,42.0,26.0,-100.00,SW,215,3.0,8.0,53,0.00,,,-99.99,300.000000,,2013-03-29 14:22:00,
2013-03-29 10:33:00,42.0,26.0,-100.00,SW,215,3.0,8.0,53,0.00,,,-99.99,300.000000,,2013-03-29 14:33:00,
2013-03-29 10:42:00,42.0,26.0,-100.00,SW,215,3.0,8.0,53,0.00,,,-99.99,300.000000,,2013-03-29 14:42:00,
2013-03-29 10:53:00,42.0,26.0,-100.00,SW,215,3.0,8.0,53,0.00,,,-99.99,300.000000,,2013-03-29 14:53:00,
2013-03-29 11:01:00,45.0,25.0,-100.00,NW,311,4.0,7.0,46,0.00,,,-99.99,673.000000,,2013-03-29 15:01:00,
2013-03-29 11:33:00,45.0,25.0,-100.00,NW,311,4.0,7.0,46,0.00,,,-99.99,673.000000,,2013-03-29 15:33:00,
2013-03-29 11:43:00,45.0,25.0,-100.00,NW,311,4.0,7.0,46,0.00,,,-99.99,673.000000,,2013-03-29 15:43:00,
2013-03-29 11:53:00,45.0,25.0,-100.00,NW,311,4.0,7.0,46,0.00,,,-99.99,673.000000,,2013-03-29 15:53:00,
2013-03-29 12:01:00,49.0,26.0,-100.00,North,0,5.0,10.0,40,0.00,,,-99.99,866.000000,,2013-03-29 16:01:00,
2013-03-29 12:33:00,49.0,26.0,-100.00,North,0,5.0,10.0,40,0.00,,,-99.99,866.000000,,2013-03-29 16:33:00,
2013-03-29 12:43:00,49.0,26.0,-100.00,North,0,5.0,10.0,40,0.00,,,-99.99,866.000000,,2013-03-29 16:43:00,
2013-03-29 12:53:00,49.0,26.0,-100.00,North,0,5.0,10.0,40,0.00,,,-99.99,866.000000,,2013-03-29 16:53:00,
2013-03-29 13:01:00,52.0,24.0,-100.00,West,268,5.0,12.0,33,0.00,,,-99.99,1036.000000,,2013-03-29 17:01:00,
2013-03-29 13:33:00,52.0,24.0,-100.00,West,268,5.0,12.0,33,0.00,,,-99.99,1036.000000,,2013-03-29 17:33:00,
2013-03-29 13:43:00,52.0,24.0,-100.00,West,268,5.0,12.0,33,0.00,,,-99.99,1036.000000,,2013-03-29 17:43:00,
2013-03-29 13:53:00,52.0,24.0,-100.00,West,268,5.0,12.0,33,0.00,,,-99.99,1036.000000,,2013-03-29 17:53:00,
2013-03-29 14:01:00,51.0,21.0,-100.00,WNW,292,5.0,12.0,30,0.00,,,0.00,893.000000,,2013-03-29 18:01:00,
2013-03-29 14:33:00,51.0,21.0,-100.00,WNW,292,5.0,12.0,30,0.00,,,0.00,893.000000,,2013-03-29 18:33:00,
2013-03-29 14:43:00,51.0,21.0,-100.00,WNW,292,5.0,12.0,30,0.00,,,0.00,893.000000,,2013-03-29 18:43:00,
2013-03-29 14:53:00,51.0,21.0,-100.00,WNW,292,5.0,12.0,30,0.00,,,0.00,893.000000,,2013-03-29 18:53:00,
2013-03-29 15:01:00,53.0,22.0,-100.00,NNW,340,6.0,13.0,29,0.00,,,0.00,968.000000,,2013-03-29 19:01:00,
2013-03-29 15:23:00,53.0,22.0,-100.00,NNW,340,6.0,13.0,29,0.00,,,0.00,968.000000,,2013-03-29 19:23:00,
2013-03-29 15:33:00,53.0,22.0,-100.00,NNW,340,6.0,13.0,29,0.00,,,0.00,968.000000,,2013-03-29 19:33:00,
2013-03-29 15:43:00,53.0,22.0,-100.00,NNW,340,6.0,13.0,29,0.00,,,0.00,968.000000,,2013-03-29 19:43:00,
2013-03-29 15:53:00,53.0,22.0,-100.00,NNW,340,6.0,13.0,29,0.00,,,0.00,968.000000,,2013-03-29 19:53:00,
2013-03-29 16:01:00,53.0,18.0,-100.00,NNW,344,5.0,13.0,25,0.00,,,0.00,859.000000,,2013-03-29 20:01:00,
2013-03-29 16:33:00,53.0,18.0,-100.00,NNW,344,5.0,13.0,25,0.00,,,0.00,859.000000,,2013-03-29 20:33:00,
2013-03-29 16:42:00,53.0,18.0,-100.00,NNW,344,5.0,13.0,25,0.00,,,0.00,859.000000,,2013-03-29 20:42:00,
2013-03-29 16:52:00,53.0,18.0,-100.00,NNW,344,5.0,13.0,25,0.00,,,0.00,859.000000,,2013-03-29 20:52:00,
2013-03-29 17:01:00,53.0,18.0,-100.00,NW,319,6.0,14.0,25,0.00,,,0.00,690.000000,,2013-03-29 21:01:00,
2013-03-29 17:22:00,53.0,18.0,-100.00,NW,319,6.0,14.0,25,0.00,,,0.00,690.000000,,2013-03-29 21:22:00,
2013-03-29 17:33:00,53.0,18.0,-100.00,NW,319,6.0,14.0,25,0.00,,,0.00,690.000000,,2013-03-29 21:33:00,
2013-03-29 17:43:00,53.0,18.0,-100.00,NW,319,6.0,14.0,25,0.00,,,0.00,690.000000,,2013-03-29 21:43:00,
2013-03-29 17:53:00,53.0,18.0,-100.00,NW,319,6.0,14.0,25,0.00,,,0.00,690.000000,,2013-03-29 21:53:00,
2013-03-29 18:01:00,49.0,16.0,-100.00,NW,323,4.0,14.0,27,0.00,,,0.00,296.000000,,2013-03-29 22:01:00,
2013-03-29 18:34:00,49.0,16.0,-100.00,NW,323,4.0,14.0,27,0.00,,,0.00,296.000000,,2013-03-29 22:34:00,
2013-03-29 18:43:00,49.0,16.0,-100.00,NW,323,4.0,14.0,27,0.00,,,0.00,296.000000,,2013-03-29 22:43:00,
2013-03-29 18:54:00,49.0,16.0,-100.00,NW,323,4.0,14.0,27,0.00,,,0.00,296.000000,,2013-03-29 22:54:00,
2013-03-29 19:01:00,47.0,19.0,-100.00,WNW,293,4.0,11.0,32,0.00,,,0.00,75.000000,,2013-03-29 23:01:00,
2013-03-29 19:32:00,47.0,19.0,-100.00,WNW,293,4.0,11.0,32,0.00,,,0.00,75.000000,,2013-03-29 23:32:00,
2013-03-29 19:43:00,47.0,19.0,-100.00,WNW,293,4.0,11.0,32,0.00,,,0.00,75.000000,,2013-03-29 23:43:00,
2013-03-29 19:53:00,47.0,19.0,-100.00,WNW,293,4.0,11.0,32,0.00,,,0.00,75.000000,,2013-03-29 23:53:00,
2013-03-29 20:01:00,45.0,19.0,-100.00,NNW,342,4.0,11.0,35,0.00,,,0.00,13.000000,,2013-03-30 00:01:00,
2013-03-29 20:22:00,45.0,19.0,-100.00,NNW,342,4.0,11.0,35,0.00,,,0.00,13.000000,,2013-03-30 00:22:00,
2013-03-29 20:33:00,45.0,19.0,-100.00,NNW,342,4.0,11.0,35,0.00,,,0.00,13.000000,,2013-03-30 00:33:00,
2013-03-29 20:43:00,45.0,19.0,-100.00,NNW,342,4.0,11.0,35,0.00,,,0.00,13.000000,,2013-03-30 00:43:00,
2013-03-29 20:53:00,45.0,19.0,-100.00,NNW,342,4.0,11.0,35,0.00,,,0.00,13.000000,,2013-03-30 00:53:00,
2013-03-29 21:01:00,44.0,21.0,-100.00,NW,325,3.0,7.0,39,0.00,,,0.00,0.000000,,2013-03-30 01:01:00,
2013-03-29 21:23:00,44.0,21.0,-100.00,NW,325,3.0,7.0,39,0.00,,,0.00,0.000000,,2013-03-30 01:23:00,
2013-03-29 21:33:00,44.0,21.0,-100.00,NW,325,3.0,7.0,39,0.00,,,0.00,0.000000,,2013-03-30 01:33:00,
2013-03-29 21:43:00,44.0,21.0,-100.00,NW,325,3.0,7.0,39,0.00,,,0.00,0.000000,,2013-03-30 01:43:00,
2013-03-29 21:53:00,44.0,21.0,-100.00,NW,325,3.0,7.0,39,0.00,,,0.00,0.000000,,2013-03-30 01:53:00,
2013-03-29 22:01:00,42.0,21.0,-100.00,NW,314,2.0,6.0,42,0.00,,,0.00,0.000000,,2013-03-30 02:01:00,
2013-03-29 22:22:00,42.0,21.0,-100.00,NW,314,2.0,6.0,42,0.00,,,0.00,0.000000,,2013-03-30 02:22:00,
2013-03-29 22:33:00,42.0,21.0,-100.00,NW,314,2.0,6.0,42,0.00,,,0.00,0.000000,,2013-03-30 02:33:00,
2013-03-29 22:43:00,42.0,21.0,-100.00,NW,314,2.0,6.0,42,0.00,,,0.00,0.000000,,2013-03-30 02:43:00,
2013-03-29 22:53:00,42.0,21.0,-100.00,NW,314,2.0,6.0,42,0.00,,,0.00,0.000000,,2013-03-30 02:53:00,
2013-03-29 23:01:00,41.0,21.0,-100.00,NNE,23,2.0,5.0,45,0.00,,,0.00,0.000000,,2013-03-30 03:01:00,
2013-03-29 23:33:00,41.0,21.0,-100.00,NNE,23,2.0,5.0,45,0.00,,,0.00,0.000000,,2013-03-30 03:33:00,
2013-03-29 23:43:00,41.0,21.0,-100.00,NNE,23,2.0,5.0,45,0.00,,,0.00,0.000000,,2013-03-30 03:43:00,
2013-03-29 23:53:00,41.0,21.0,-100.00,NNE,23,2.0,5.0,45,0.00,,,0.00,0.000000,,2013-03-30 03:53:00,